User: anonymous   Login
Location: Unspecified
(0.0000°N, 0.0000°E)
Time: 06:36:05
(UTC+00:00)
Language:

Transit 4A - Orbit

View from above orbital plane
View from above orbital plane
View from above satellite
View from above satellite

Ground track
Ground track

The orbit data is extracted from the following two-line orbital elements,

1 00116U 61015A   21292.91345661 -.00000042  00000-0  27038-4 0  9993
2 00116  66.8085  91.6527 0072806  21.2272 339.1800 13.91799650 59910
Epoch (UTC): 19 October 2021 21:55:22
Eccentricity: 0.0072806
inclination: 66.8085°
perigee height: 869 km
apogee height: 975 km
right ascension of ascending node: 91.6527°
argument of perigee: 21.2272°
revolutions per day: 13.91799650
mean anomaly at epoch: 339.1800°
orbit number at epoch: 5991

The dashed part of the orbit path shows where the satellite is in the earth's shadow,  

DLR